Location: Kawakawa
(35.3830°S, 174.0670°E)
Time: 05:23:12
(UTC+12:00)

ISS - Visible Passes

Search period start: 15 August 2020 00:00
Search period end: 25 August 2020 00:00
Orbit: 418 x 420 km, 51.6° (Epoch: 15 August)

Date Brightness Start Highest point End Pass type
(mag) Time Alt. Az. Time Alt. Az. Time Alt. Az.
15 Aug -0.8 05:02:29 11° NNE 05:02:29 11° NNE 05:02:34 10° NNE visible
16 Aug -1.4 19:13:56 10° NNE 19:14:42 13° NNE 19:14:42 13° NNE visible
17 Aug -1.3 20:01:39 10° NW 20:02:50 20° NW 20:02:50 20° NW visible
18 Aug -3.6 19:14:09 10° NNW 19:17:29 56° NE 19:17:53 51° ENE visible
19 Aug -2.6 18:26:58 10° NNW 18:29:58 29° NE 18:32:49 11° ESE visible
19 Aug -1.3 20:03:49 10° W 20:05:48 23° WSW 20:05:48 23° WSW visible
20 Aug -2.7 19:15:46 10° WNW 19:19:01 42° SW 19:20:37 25° SSE visible
21 Aug -3.6 18:27:58 10° NW 18:31:21 77° SW 18:34:48 10° SE visible
21 Aug -0.7 20:07:06 10° SW 20:08:17 12° SSW 20:08:17 12° SSW visible
22 Aug -1.2 19:18:23 10° WSW 19:20:47 18° SSW 19:22:52 11° S visible
23 Aug -1.8 18:30:02 10° W 18:32:58 26° SSW 18:35:55 10° SSE visible
